Location: Sungai Bunut
(2.6333°N, 113.7333°E)
Time: 02:07:05
(UTC+00:00)

S-56A Canister/Altair - Pass Details

Date: 09 December 2023
Orbit: 640 x 2488 km, 38.9° (Epoch: 24 February)

Event Time Altitude Azimuth Distance (km) Brightness Sun altitude
Rises 11:47:28 0° 292° (WNW) 3,886 11.8 -21.8°
Reaches altitude 10° 11:49:59 10° 284° (WNW) 3,142 11.3 -22.3°
Maximum altitude 11:57:27 42° 216° (SW) 2,125 10.1 -24.1°
Drops below altitude 10° 12:08:23 10° 150° (SSE) 4,543 11.4 -26.5°
Sets 12:12:52 0° 143° (SE) 5,784 11.9 -27.6°
